Year,Month,Day,Hour,Minute,Value (Times are PST for temperature in C)
2012,09,18,10,25,20.10
2012,09,18,10,26,20.20
2012,09,18,10,27,20.20
2012,09,18,10,28,20.30
2012,09,18,10,29,20.40
2012,09,18,10,30,20.40
2012,09,18,10,31,20.50
2012,09,18,10,32,20.60
2012,09,18,10,33,20.70
2012,09,18,10,34,20.70
2012,09,18,10,35,20.80
2012,09,18,10,36,20.90
2012,09,18,10,37,21.00
2012,09,18,10,38,21.10
2012,09,18,10,39,21.10
2012,09,18,10,40,21.20
2012,09,18,10,41,21.20
2012,09,18,10,42,21.30
2012,09,18,10,43,21.30
2012,09,18,10,44,21.40
2012,09,18,10,45,21.40
2012,09,18,10,46,21.40
2012,09,18,10,47,21.50
2012,09,18,10,48,21.60
2012,09,18,10,49,21.60
2012,09,18,10,50,21.70
2012,09,18,10,51,21.70
2012,09,18,10,52,21.80
2012,09,18,10,53,21.80
2012,09,18,10,54,21.80
2012,09,18,10,55,21.90
2012,09,18,10,56,21.90
2012,09,18,10,57,22.00
2012,09,18,10,58,22.10
2012,09,18,10,59,22.10
2012,09,18,11,00,22.20
2012,09,18,11,01,22.30
2012,09,18,11,02,22.30
2012,09,18,11,03,22.40
2012,09,18,11,04,22.50
2012,09,18,11,05,22.50
2012,09,18,11,06,22.60
2012,09,18,11,07,22.60
2012,09,18,11,08,22.60
2012,09,18,11,09,22.60
2012,09,18,11,10,22.70
2012,09,18,11,11,22.70
2012,09,18,11,12,22.70
2012,09,18,11,13,22.70
2012,09,18,11,14,22.80
2012,09,18,11,15,22.80
2012,09,18,11,16,22.90
2012,09,18,11,17,22.90
2012,09,18,11,18,23.00
2012,09,18,11,19,23.10
2012,09,18,11,20,23.00
2012,09,18,11,21,23.00
2012,09,18,11,22,23.00
2012,09,18,11,23,22.90
2012,09,18,11,24,23.00
2012,09,18,11,25,23.10
2012,09,18,11,26,23.10
2012,09,18,11,27,23.20
2012,09,18,11,28,23.30
2012,09,18,11,29,23.30
2012,09,18,11,30,23.40
2012,09,18,11,31,23.40
2012,09,18,11,32,23.40
2012,09,18,11,33,23.40
2012,09,18,11,34,23.50
2012,09,18,11,35,23.50
2012,09,18,11,36,23.50
2012,09,18,11,37,23.50
2012,09,18,11,38,23.50
2012,09,18,11,39,23.50
2012,09,18,11,40,23.50
2012,09,18,11,41,23.50
2012,09,18,11,42,23.50
2012,09,18,11,43,23.60
2012,09,18,11,44,23.60
2012,09,18,11,45,23.70
2012,09,18,11,46,23.70
2012,09,18,11,47,23.80
2012,09,18,11,48,23.80
2012,09,18,11,49,23.90
2012,09,18,11,50,23.90
2012,09,18,11,51,24.00
2012,09,18,11,52,24.00
2012,09,18,11,53,24.00
2012,09,18,11,54,24.00
2012,09,18,11,55,24.00
2012,09,18,11,56,24.00
2012,09,18,11,57,24.10
2012,09,18,11,58,24.20
2012,09,18,11,59,24.20
2012,09,18,12,00,24.30
2012,09,18,12,01,24.30
2012,09,18,12,02,24.40
2012,09,18,12,03,24.40
2012,09,18,12,04,24.30
2012,09,18,12,05,24.40
2012,09,18,12,06,24.40
2012,09,18,12,07,24.40
2012,09,18,12,08,24.50
2012,09,18,12,09,24.60
2012,09,18,12,10,24.70
2012,09,18,12,11,24.80
2012,09,18,12,12,24.90
2012,09,18,12,13,24.90
2012,09,18,12,14,24.90
2012,09,18,12,15,24.90
2012,09,18,12,16,24.90
2012,09,18,12,17,25.00
2012,09,18,12,18,25.10
2012,09,18,12,19,25.10
2012,09,18,12,20,25.10
2012,09,18,12,21,25.10
2012,09,18,12,22,25.10
2012,09,18,12,23,25.20
2012,09,18,12,24,25.20
2012,09,18,12,25,25.20
2012,09,18,12,26,25.20
2012,09,18,12,27,25.30
2012,09,18,12,28,25.30
2012,09,18,12,29,25.30
2012,09,18,12,30,25.40
2012,09,18,12,31,25.50
2012,09,18,12,32,25.50
2012,09,18,12,33,25.60
2012,09,18,12,34,25.60
2012,09,18,12,35,25.70
2012,09,18,12,36,25.70
2012,09,18,12,37,25.70
2012,09,18,12,38,25.70
2012,09,18,12,39,25.70
2012,09,18,12,40,25.60
2012,09,18,12,41,25.60
2012,09,18,12,42,25.60
2012,09,18,12,43,25.60
2012,09,18,12,44,25.60
2012,09,18,12,45,25.60
2012,09,18,12,46,25.70
2012,09,18,12,47,25.70
2012,09,18,12,48,25.70
2012,09,18,12,49,25.80
2012,09,18,12,50,25.80
2012,09,18,12,51,25.80
2012,09,18,12,52,25.80
2012,09,18,12,53,25.80
2012,09,18,12,54,25.80
2012,09,18,12,55,25.80
2012,09,18,12,56,25.80
2012,09,18,12,57,25.80
2012,09,18,12,58,25.90
2012,09,18,12,59,25.90
2012,09,18,13,00,25.80
2012,09,18,13,01,25.80
2012,09,18,13,02,25.80
2012,09,18,13,03,25.80
2012,09,18,13,04,25.90
2012,09,18,13,05,25.90
2012,09,18,13,06,25.90
2012,09,18,13,07,25.90
2012,09,18,13,08,25.90
2012,09,18,13,09,25.80
2012,09,18,13,10,25.80
2012,09,18,13,11,25.80
2012,09,18,13,12,25.80
2012,09,18,13,13,25.80
2012,09,18,13,14,25.80
2012,09,18,13,15,25.80
2012,09,18,13,16,25.80
2012,09,18,13,17,25.90
2012,09,18,13,18,25.90
2012,09,18,13,19,25.90
2012,09,18,13,20,25.90
2012,09,18,13,21,25.90
2012,09,18,13,22,25.90
2012,09,18,13,23,25.90
2012,09,18,13,24,26.00
2012,09,18,13,25,26.00
2012,09,18,13,26,26.00
2012,09,18,13,27,26.00
2012,09,18,13,28,26.00
2012,09,18,13,29,26.00
2012,09,18,13,30,26.10
2012,09,18,13,31,26.10
2012,09,18,13,32,26.20
2012,09,18,13,33,26.20
2012,09,18,13,34,26.20
2012,09,18,13,35,26.10
2012,09,18,13,36,26.10
2012,09,18,13,37,26.10
2012,09,18,13,38,26.00
2012,09,18,13,39,25.90
2012,09,18,13,40,26.00
2012,09,18,13,41,26.00
2012,09,18,13,42,26.10
2012,09,18,13,43,26.10
2012,09,18,13,44,26.20
2012,09,18,13,45,26.20
2012,09,18,13,46,26.20
2012,09,18,13,47,26.20
2012,09,18,13,48,26.20
2012,09,18,13,49,26.10
2012,09,18,13,50,26.00
2012,09,18,13,51,25.90
2012,09,18,13,52,25.90
2012,09,18,13,53,25.90
2012,09,18,13,54,25.90
2012,09,18,13,55,25.90
2012,09,18,13,56,25.90
2012,09,18,13,57,25.90
2012,09,18,13,58,25.90
2012,09,18,13,59,25.90
2012,09,18,14,00,25.80
2012,09,18,14,01,25.80
2012,09,18,14,02,25.90
2012,09,18,14,03,25.90
2012,09,18,14,04,26.00
2012,09,18,14,05,26.00
2012,09,18,14,06,26.10
2012,09,18,14,07,26.10
2012,09,18,14,08,26.10
2012,09,18,14,09,26.10
2012,09,18,14,10,26.10
2012,09,18,14,11,26.10
2012,09,18,14,12,26.10
2012,09,18,14,13,26.10
2012,09,18,14,14,26.00
2012,09,18,14,15,25.90
2012,09,18,14,16,25.90
2012,09,18,14,17,25.90
2012,09,18,14,18,25.90
2012,09,18,14,19,25.80
2012,09,18,14,20,25.80
2012,09,18,14,21,25.80
2012,09,18,14,22,25.80
2012,09,18,14,23,25.80
2012,09,18,14,24,25.80
2012,09,18,14,25,25.70
2012,09,18,14,26,25.70
2012,09,18,14,27,25.60
2012,09,18,14,28,25.50
2012,09,18,14,29,25.50
2012,09,18,14,30,25.50
2012,09,18,14,31,25.40
2012,09,18,14,32,25.50
2012,09,18,14,33,25.50
2012,09,18,14,34,25.50
2012,09,18,14,35,25.60
2012,09,18,14,36,25.70
2012,09,18,14,37,25.70
2012,09,18,14,38,25.70
2012,09,18,14,39,25.80
2012,09,18,14,40,25.80
2012,09,18,14,41,25.80
2012,09,18,14,42,25.90
2012,09,18,14,43,25.90
2012,09,18,14,44,25.90
2012,09,18,14,45,25.80
2012,09,18,14,46,25.80
2012,09,18,14,47,25.80
2012,09,18,14,48,25.80
2012,09,18,14,49,25.80
2012,09,18,14,50,25.80
2012,09,18,14,51,25.80
2012,09,18,14,52,25.80
2012,09,18,14,53,25.80
2012,09,18,14,54,25.80
2012,09,18,14,55,25.90
2012,09,18,14,56,25.90
2012,09,18,14,57,25.90
2012,09,18,14,58,25.90
2012,09,18,14,59,25.90
2012,09,18,15,00,25.90
2012,09,18,15,01,25.90
2012,09,18,15,02,26.00
2012,09,18,15,03,26.00
2012,09,18,15,04,26.00
2012,09,18,15,05,26.00
2012,09,18,15,06,26.00
2012,09,18,15,07,26.00
2012,09,18,15,08,26.10
2012,09,18,15,09,26.10
2012,09,18,15,10,26.10
2012,09,18,15,11,26.00
2012,09,18,15,12,25.90
2012,09,18,15,13,25.90
2012,09,18,15,14,25.90
2012,09,18,15,15,25.90
2012,09,18,15,16,25.90
2012,09,18,15,17,25.90
2012,09,18,15,18,25.90
2012,09,18,15,19,26.00
2012,09,18,15,20,26.00
2012,09,18,15,21,26.10
2012,09,18,15,22,26.10
2012,09,18,15,23,26.10
2012,09,18,15,24,26.20
2012,09,18,15,25,26.20
2012,09,18,15,26,26.20
2012,09,18,15,27,26.20
2012,09,18,15,28,26.30
2012,09,18,15,29,26.20
2012,09,18,15,30,26.20
2012,09,18,15,31,26.20
2012,09,18,15,32,26.20
2012,09,18,15,33,26.10
2012,09,18,15,34,26.00
2012,09,18,15,35,25.90
2012,09,18,15,36,25.90
2012,09,18,15,37,25.80
2012,09,18,15,38,25.80
2012,09,18,15,39,25.70
2012,09,18,15,40,25.70
2012,09,18,15,41,25.70
2012,09,18,15,42,25.60
2012,09,18,15,43,25.60
2012,09,18,15,44,25.50
2012,09,18,15,45,25.50
2012,09,18,15,46,25.50
2012,09,18,15,47,25.50
2012,09,18,15,48,25.50
2012,09,18,15,49,25.50
2012,09,18,15,50,25.50
2012,09,18,15,51,25.60
2012,09,18,15,52,25.60
2012,09,18,15,53,25.60
2012,09,18,15,54,25.60
2012,09,18,15,55,25.50
2012,09,18,15,56,25.60
2012,09,18,15,57,25.60
2012,09,18,15,58,25.60
2012,09,18,15,59,25.60
2012,09,18,16,00,25.70
2012,09,18,16,01,25.70
2012,09,18,16,02,25.70
2012,09,18,16,03,25.70
2012,09,18,16,04,25.70
2012,09,18,16,05,25.70
2012,09,18,16,06,25.60
2012,09,18,16,07,25.60
2012,09,18,16,08,25.60
2012,09,18,16,09,25.60
2012,09,18,16,10,25.70
2012,09,18,16,11,25.70
2012,09,18,16,12,25.70
2012,09,18,16,13,25.70
2012,09,18,16,14,25.70
2012,09,18,16,15,25.80
2012,09,18,16,16,25.80
2012,09,18,16,17,25.80
2012,09,18,16,18,25.80
2012,09,18,16,19,25.70
2012,09,18,16,20,25.70
2012,09,18,16,21,25.80
2012,09,18,16,22,25.80
2012,09,18,16,23,25.80
2012,09,18,16,24,25.80
2012,09,18,16,25,25.80
2012,09,18,16,26,25.80
2012,09,18,16,27,25.80
2012,09,18,16,28,25.70
2012,09,18,16,29,25.70
2012,09,18,16,30,25.70
2012,09,18,16,31,25.70
2012,09,18,16,32,25.70
2012,09,18,16,33,25.70
2012,09,18,16,34,25.70
2012,09,18,16,35,25.70
2012,09,18,16,36,25.70
2012,09,18,16,37,25.60
2012,09,18,16,38,25.60
2012,09,18,16,39,25.60
2012,09,18,16,40,25.60
2012,09,18,16,41,25.60
2012,09,18,16,42,25.60
2012,09,18,16,43,25.60
2012,09,18,16,44,25.50
2012,09,18,16,45,25.40
2012,09,18,16,46,25.30
2012,09,18,16,47,25.30
2012,09,18,16,48,25.20
2012,09,18,16,49,25.20
2012,09,18,16,50,25.20
2012,09,18,16,51,25.10
2012,09,18,16,52,25.10
2012,09,18,16,53,25.00
2012,09,18,16,54,25.00
2012,09,18,16,55,25.00
2012,09,18,16,56,25.00
2012,09,18,16,57,25.00
2012,09,18,16,58,24.90
2012,09,18,16,59,24.90
2012,09,18,17,00,24.90
2012,09,18,17,01,24.90
2012,09,18,17,02,24.80
2012,09,18,17,03,24.80
2012,09,18,17,04,24.80
2012,09,18,17,05,24.70
2012,09,18,17,06,24.70
2012,09,18,17,07,24.70
2012,09,18,17,08,24.70
2012,09,18,17,09,24.70
2012,09,18,17,10,24.70
2012,09,18,17,11,24.70
2012,09,18,17,12,24.80
2012,09,18,17,13,24.80
2012,09,18,17,14,24.90
2012,09,18,17,15,24.90
2012,09,18,17,16,24.90
2012,09,18,17,17,24.90
2012,09,18,17,18,24.90
2012,09,18,17,19,24.90
2012,09,18,17,20,24.80
2012,09,18,17,21,24.80
2012,09,18,17,22,24.70
2012,09,18,17,23,24.70
2012,09,18,17,24,24.60
2012,09,18,17,25,24.50
2012,09,18,17,26,24.50
2012,09,18,17,27,24.40
2012,09,18,17,28,24.40
2012,09,18,17,29,24.40
2012,09,18,17,30,24.30
2012,09,18,17,31,24.30
2012,09,18,17,32,24.30
2012,09,18,17,33,24.30
2012,09,18,17,34,24.20
2012,09,18,17,35,24.20
2012,09,18,17,36,24.20
2012,09,18,17,37,24.20
2012,09,18,17,38,24.10
2012,09,18,17,39,24.10
2012,09,18,17,40,24.10
2012,09,18,17,41,24.10
2012,09,18,17,42,24.00
2012,09,18,17,43,24.00
2012,09,18,17,44,24.00
2012,09,18,17,45,23.90
2012,09,18,17,46,23.90
2012,09,18,17,47,23.90
2012,09,18,17,48,23.90
2012,09,18,17,49,23.90
2012,09,18,17,50,23.80
2012,09,18,17,51,23.80
2012,09,18,17,52,23.80
2012,09,18,17,53,23.70
2012,09,18,17,54,23.70
2012,09,18,17,55,23.70
2012,09,18,17,56,23.70
2012,09,18,17,57,23.70
2012,09,18,17,58,23.70
2012,09,18,17,59,23.70
2012,09,18,18,00,23.60
2012,09,18,18,01,23.60
2012,09,18,18,02,23.60
2012,09,18,18,03,23.60
2012,09,18,18,04,23.60
2012,09,18,18,05,23.50
2012,09,18,18,06,23.50
2012,09,18,18,07,23.50
2012,09,18,18,08,23.50
2012,09,18,18,09,23.40
2012,09,18,18,10,23.40
2012,09,18,18,11,23.40
2012,09,18,18,12,23.40
2012,09,18,18,13,23.40
2012,09,18,18,14,23.40
2012,09,18,18,15,23.40
2012,09,18,18,16,23.30
2012,09,18,18,17,23.30
2012,09,18,18,18,23.30
2012,09,18,18,19,23.30
2012,09,18,18,20,23.20
2012,09,18,18,21,23.20
2012,09,18,18,22,23.20
2012,09,18,18,23,23.20
2012,09,18,18,24,23.10
2012,09,18,18,25,23.10
2012,09,18,18,26,23.10
2012,09,18,18,27,23.10
2012,09,18,18,28,23.00
2012,09,18,18,29,23.00
2012,09,18,18,30,23.00
2012,09,18,18,31,22.90
2012,09,18,18,32,22.90
2012,09,18,18,33,22.90
2012,09,18,18,34,22.90
2012,09,18,18,35,22.80
2012,09,18,18,36,22.80
2012,09,18,18,37,22.70
2012,09,18,18,38,22.70
2012,09,18,18,39,22.70
2012,09,18,18,40,22.60
2012,09,18,18,41,22.60
2012,09,18,18,42,22.50
2012,09,18,18,43,22.50
2012,09,18,18,44,22.40
2012,09,18,18,45,22.40
2012,09,18,18,46,22.40
2012,09,18,18,47,22.40
2012,09,18,18,48,22.30
2012,09,18,18,49,22.30
2012,09,18,18,50,22.20
2012,09,18,18,51,22.20
2012,09,18,18,52,22.10
2012,09,18,18,53,22.10
2012,09,18,18,54,22.00
2012,09,18,18,55,22.00
2012,09,18,18,56,21.90
2012,09,18,18,57,21.90
2012,09,18,18,58,21.80
2012,09,18,18,59,21.80
2012,09,18,19,00,21.80
2012,09,18,19,01,21.70
2012,09,18,19,02,21.70
2012,09,18,19,03,21.70
2012,09,18,19,04,21.60
2012,09,18,19,05,21.50
2012,09,18,19,06,21.40
2012,09,18,19,07,21.40
2012,09,18,19,08,21.30
2012,09,18,19,09,21.30
2012,09,18,19,10,21.20
2012,09,18,19,11,21.20
2012,09,18,19,12,21.10
2012,09,18,19,13,21.00
2012,09,18,19,14,21.00
2012,09,18,19,15,20.90
2012,09,18,19,16,20.80
2012,09,18,19,17,20.80
2012,09,18,19,18,20.70
2012,09,18,19,19,20.60
2012,09,18,19,20,20.60
2012,09,18,19,21,20.60
2012,09,18,19,22,20.60
2012,09,18,19,23,20.60
2012,09,18,19,24,20.60
2012,09,18,19,25,20.60
2012,09,18,19,26,20.60
2012,09,18,19,27,20.60
2012,09,18,19,28,20.60
2012,09,18,19,29,20.60
2012,09,18,19,30,20.60
2012,09,18,19,31,20.60
